Flag for Germany Past Weather in Forchheim, Bavaria, Germany — Yesterday and Last 2 Weeks

Now
84 °F

Sunny.


Feels Like: 82 °F
Forecast: 60 / 86 °F
Wind: 2 mph from North

Location: Nuernberg

Current Time: May 28, 2017 at 6:42:35 pm

Latest Report: May 28, 2017 at 6:20 pm


Visibility: 10 mi

Pressure: 30.07 "Hg

Humidity: 23%

Dew Point: 43 °F

Location of ForchheimLocation

Past Weather in Forchheim — Graph

°F

Forchheim Temperature Yesterday

Maximum temperature yesterday: 81 °F (at 3:50 pm)
Minimum temperature yesterday: 52 °F (at 5:50 am)
Average temperature yesterday: 69 °F

High & Low Weather Summary for the Past Weeks

 TemperatureHumidityPressure
High86 °F (May 28, 5:20 pm)100% (May 14, 7:35 pm)30.45 "Hg (May 14, 7:35 pm)
Low41 °F (May 21, 4:50 am)22% (May 28, 5:20 pm)29.77 "Hg (May 19, 4:20 am)
Average61 °F68%30.15 "Hg
* Reported May 13 5:20 pm — May 28 5:50 pm, Forchheim. Weather by CustomWeather, © 2017

Note: Actual official high and low records may vary slightly from our data, if they occured in-between our weather recording intervals... More about our weather records

Advertising

Forchheim Weather History for the Previous 24 Hours

Scroll right to see more
 ConditionsComfort  
Time TempWeatherWind HumidityBarometerVisibility
5:50 pm
Sun, May 28
84 °FPassing clouds.5 mph25%30.07 "HgN/A
5:20 pm86 °FPassing clouds.5 mph22%30.09 "HgN/A
4:50 pm84 °FSunny.3 mph25%30.09 "Hg10 mi
4:20 pm84 °FSunny.3 mph25%30.09 "Hg10 mi
3:50 pm84 °FSunny.6 mph25%30.09 "Hg10 mi
3:20 pm84 °FPassing clouds.7 mph29%30.09 "HgN/A
2:50 pm84 °FSunny.5 mph29%30.09 "Hg10 mi
2:20 pm82 °FPassing clouds.8 mph30%30.12 "HgN/A
1:50 pm82 °FSunny.5 mph28%30.12 "Hg10 mi
1:20 pm82 °FSunny.6 mph30%30.12 "Hg10 mi
12:50 pm82 °FPassing clouds.8 mph32%30.12 "HgN/A
12:20 pm81 °FPassing clouds.8 mph34%30.15 "HgN/A
11:50 am79 °FPassing clouds.9 mph37%30.15 "HgN/A
10:50 am77 °FPassing clouds.9 mph39%30.15 "HgN/A
10:20 am75 °FPassing clouds.8 mph44%30.15 "HgN/A
9:50 am73 °FPassing clouds.7 mph47%30.15 "HgN/A
9:20 am72 °FPassing clouds.8 mph50%30.15 "HgN/A
8:50 am70 °FPassing clouds.9 mph53%30.15 "HgN/A
8:20 am68 °FPassing clouds.6 mph56%30.18 "HgN/A
7:50 am64 °FSunny.2 mph68%30.18 "Hg10 mi
7:20 am63 °FSunny.No wind73%30.18 "Hg10 mi
6:50 am59 °FSunny.3 mph82%30.15 "Hg10 mi
6:20 am55 °FSunny.6 mph82%30.15 "Hg10 mi
5:50 am55 °FSunny.No wind82%30.15 "Hg10 mi
4:50 am55 °FClear.No wind82%30.15 "Hg10 mi
4:20 am57 °FClear.No wind77%30.15 "Hg10 mi
3:50 am55 °FClear.1 mph82%30.15 "Hg10 mi
3:20 am55 °FClear.1 mph82%30.15 "Hg10 mi
2:20 am59 °FClear.6 mph72%30.15 "Hg10 mi
1:50 am61 °FClear.6 mph68%30.15 "Hg10 mi
12:50 am63 °FClear.6 mph64%30.15 "Hg10 mi
11:50 pm
Sat, May 27
63 °FClear.3 mph64%30.15 "Hg10 mi
10:50 pm68 °FClear.2 mph53%30.15 "Hg10 mi
9:50 pm70 °FPassing clouds.5 mph46%30.12 "HgN/A
9:20 pm73 °FClear.5 mph41%30.12 "Hg10 mi
8:50 pm75 °FSunny.6 mph36%30.12 "Hg10 mi
8:20 pm77 °FPassing clouds.5 mph34%30.09 "HgN/A
7:50 pm77 °FPassing clouds.7 mph42%30.09 "HgN/A
6:50 pm81 °FPassing clouds.6 mph30%30.09 "HgN/A
6:20 pm81 °FPassing clouds.6 mph32%30.09 "HgN/A
Weather by CustomWeather, © 2017

See weather overviewHow to use our weather pages